Stations météo

réclame
Mon MeteoGroup
Waren, Allemagne (10268): Température de l'air & dewpoint: 13.06.2019 17:00:00 - 19.06.2019 17:00:00 (CEST)Waren, Allemagne (10268): Température de l'air 5cm & Température de l'air -5cm: 13.06.2019 17:00:00 - 19.06.2019 17:00:00 (CEST)Waren, Allemagne (10268): Température de l'air -20cm & Température de l'air -100cm: 13.06.2019 17:00:00 - 19.06.2019 17:00:00 (CEST)Waren, Allemagne (10268): Vitesse du vent & gusts: 13.06.2019 17:00:00 - 19.06.2019 17:00:00 (CEST)Waren, Allemagne (10268): Direction du vent: 13.06.2019 17:00:00 - 19.06.2019 17:00:00 (CEST)Waren, Allemagne (10268): reduced air pressure: 13.06.2019 17:00:00 - 19.06.2019 17:00:00 (CEST)Waren, Allemagne (10268): visibility: 13.06.2019 17:00:00 - 19.06.2019 17:00:00 (CEST)Waren, Allemagne (10268): Ensoleillement: 13.06.2019 17:00:00 - 19.06.2019 17:00:00 (CEST)Waren, Allemagne (10268): Quantités de précipitations: 13.06.2019 17:00:00 - 19.06.2019 17:00:00 (CEST)
Date & Time tt [°C] td [°C] tt 5cm [°C] tt -5cm [°C] tt -20cm [°C] tt -100cm [°C] ff [km/h] ff [knt] fx [km/h] fx [knt] dd ppp [hPa] vv [km] sd [min] rr [mm]
19.06.2019 17:00:00 29,8 13,5 34,5 39,6 31,2 20,4 9 5 22 12 SSE 1007,2 69 60 0,0
19.06.2019 16:00:00 29,3 14,5 34,3 40,9 30,5 20,4 9 5 19 10 SSE 1007,8 59 60 0,0
19.06.2019 15:00:00 29,4 12,8 34,9 41,7 29,5 20,4 10 5 21 11 SE 1008,6 41 60 0,0
19.06.2019 14:00:00 29,0 11,7 34,3 41,0 28,5 20,4 10 5 21 11 SE 1009,1 63 59 0,0
19.06.2019 13:00:00 27,8 12,6 33,9 39,0 27,6 20,4 12 6 21 12 SSE 1009,3 75 60 0,0
19.06.2019 12:00:00 26,9 11,3 30,1 37,1 26,6 20,3 11 6 18 10 S 1009,9 16 56 0,0
19.06.2019 11:00:00 26,7 14,7 30,9 35,4 25,8 20,3 10 6 17 9 SSE 1010,0 62 57 0,0
19.06.2019 10:00:00 25,2 15,2 29,3 33,7 25,0 20,3 8 4 17 9 SSE 1010,6 43 60 0,0
19.06.2019 09:00:00 23,3 16,5 26,5 30,0 24,6 20,3 9 5 15 8 S 1010,9 22 60 0,0
19.06.2019 08:00:00 22,5 14,4 24,7 26,3 24,5 20,2 8 4 15 8 SSE 1011,2 51 60 0,0
19.06.2019 07:00:00 20,8 14,0 21,1 22,5 24,7 20,2 9 5 16 8 SE 1011,6 57 46 0,0
19.06.2019 06:00:00 20,1 14,3 18,8 20,9 25,1 20,2 10 6 17 9 S 1011,9 64 5 0,0
19.06.2019 05:00:00 19,9 13,4 18,2 21,1 25,5 20,2 10 5 21 12 S 1012,0 62 0 0,0
19.06.2019 04:00:00 20,7 13,1 19,2 21,8 26,0 20,1 14 8 26 14 S 1012,3 63 0 0,0
19.06.2019 03:00:00 21,4 12,5 20,0 22,4 26,6 20,1 16 9 28 15 SSE 1012,5 62 0 0,0
19.06.2019 02:00:00 22,0 11,9 20,6 23,0 27,2 20,1 19 10 29 15 SSE 1012,9 66 0 0,0
19.06.2019 01:00:00 21,9 10,5 20,3 23,8 27,8 20,1 11 6 21 12 ESE 1013,3 65 0 0,0
19.06.2019 00:00:00 22,1 11,0 20,3 24,8 28,5 20,0 10 6 18 10 SE 1013,6 75 0 0,0
18.06.2019 23:00:00 22,4 11,8 19,9 26,4 29,2 20,0 8 4 16 8 ESE 1013,7 60 0 0,0
18.06.2019 22:00:00 23,9 12,1 22,2 28,4 29,9 20,0 9 5 18 10 ESE 1013,7 68 14 0,0
18.06.2019 21:00:00 25,5 11,7 24,3 30,8 30,4 20,0 9 5 19 10 ESE 1013,4 70 47 0,0
18.06.2019 20:00:00 26,6 11,6 27,1 33,4 30,7 20,0 12 7 22 12 SE 1013,5 57 60 0,0
18.06.2019 19:00:00 27,2 11,1 28,8 35,1 30,7 20,0 15 8 23 12 SSE 1013,9 53 60 0,0
18.06.2019 18:00:00 27,5 12,6 30,1 36,3 30,5 20,0 13 7 24 13 SSE 1014,2 57 60 0,0
18.06.2019 17:00:00 27,6 11,8 31,0 37,5 30,0 20,0 14 8 26 14 SSE 1014,8 62 58 0,0
18.06.2019 16:00:00 27,1 10,8 31,4 39,2 29,2 20,0 15 8 29 16 SSE 1015,4 55 60 0,0
18.06.2019 15:00:00 27,2 12,2 31,9 39,6 28,2 20,0 15 8 30 16 SSE 1016,1 48 60 0,0
18.06.2019 14:00:00 26,7 11,7 31,4 38,9 27,2 20,0 18 10 30 16 SSE 1016,6 57 60 0,0
18.06.2019 13:00:00 26,5 13,6 31,6 37,9 26,1 20,0 16 8 29 16 SSE 1017,1 68 60 0,0
18.06.2019 12:00:00 25,4 13,6 29,7 36,4 25,0 19,9 17 9 31 17 S 1017,6 61 60 0,0
18.06.2019 11:00:00 24,7 13,9 28,7 34,1 24,0 19,9 15 8 26 14 S 1017,8 64 60 0,0
18.06.2019 10:00:00 23,6 14,6 27,0 31,6 23,2 19,9 13 7 19 11 SSE 1018,3 51 60 0,0
18.06.2019 09:00:00 22,1 14,5 24,9 27,8 22,7 19,9 9 5 18 10 SSE 1018,5 50 60 0,0
18.06.2019 08:00:00 20,2 14,0 22,1 23,8 22,5 19,9 9 5 14 7 SSE 1018,9 47 60 0,0
18.06.2019 07:00:00 18,5 12,8 19,2 20,1 22,7 19,8 5 3 13 7 ESE 1018,9 62 57 0,0
18.06.2019 06:00:00 16,2 12,2 14,0 17,9 23,1 19,8 3 1 8 4 E 1019,3 68 32 0,0
18.06.2019 05:00:00 15,7 11,9 13,1 17,9 23,6 19,8 4 2 8 4 ENE 1019,6 53 0 0,0
18.06.2019 04:00:00 16,2 11,6 13,5 18,6 24,2 19,8 3 2 10 6 NE 1019,8 73 0 0,0
18.06.2019 03:00:00 16,2 11,6 14,4 19,3 24,8 19,8 6 3 14 7 E 1020,2 67 0 0,0
18.06.2019 02:00:00 17,2 11,4 15,8 20,1 25,4 19,7 9 5 19 10 E 1020,4 72 0 0,0
18.06.2019 01:00:00 17,0 13,0 15,7 21,0 26,1 19,7 8 5 19 10 E 1020,6 73 0 0,0
18.06.2019 00:00:00 17,8 13,5 16,8 22,2 26,8 19,7 10 5 - - E 1020,5 63 0 0,0
17.06.2019 23:00:00 18,7 14,2 - 23,7 27,6 19,7 - - - - - - 64 0 0,0
17.06.2019 22:00:00 19,9 15,2 19,0 25,6 28,2 19,7 11 6 20 11 ENE 1020,5 67 23 0,0
17.06.2019 21:00:00 22,1 12,5 21,5 28,3 28,8 19,7 11 6 21 11 ENE 1020,1 75 60 0,0
17.06.2019 20:00:00 23,4 11,8 24,5 30,7 29,1 19,7 11 6 18 10 NE 1020,1 75 60 0,0
17.06.2019 19:00:00 24,1 11,2 27,0 32,7 29,2 19,7 10 5 19 10 ENE 1020,4 75 45 0,0
17.06.2019 18:00:00 24,4 11,0 28,1 34,2 29,1 19,7 8 4 15 8 E 1020,7 75 51 0,0
17.06.2019 17:00:00 24,6 11,3 29,0 34,8 28,8 19,7 5 3 16 9 N 1021,0 75 32 0,0
17.06.2019 16:00:00 24,5 11,7 31,1 38,1 28,0 19,7 9 5 16 9 E 1021,4 41 56 0,0
17.06.2019 15:00:00 24,3 12,1 30,0 37,0 27,3 19,7 4 2 15 8 WSW 1021,6 69 35 0,0
17.06.2019 14:00:00 22,6 11,0 25,4 38,1 26,3 19,8 5 3 26 14 SE 1021,9 65 40 0,0
17.06.2019 13:00:00 23,3 11,7 30,0 39,2 24,9 19,8 9 5 17 9 WSW 1022,0 61 60 0,0
17.06.2019 12:00:00 22,1 13,6 27,6 37,2 23,5 19,8 11 6 15 8 SSW 1022,2 72 60 0,0
17.06.2019 11:00:00 21,0 15,1 26,1 34,6 22,2 19,8 8 4 13 7 S 1022,5 35 60 0,0
17.06.2019 10:00:00 19,8 14,8 24,3 30,3 21,3 19,8 7 4 10 5 S 1022,5 41 60 0,0
17.06.2019 09:00:00 18,7 14,2 22,2 25,7 20,8 19,7 5 3 11 6 W 1022,5 34 60 0,0
17.06.2019 08:00:00 17,8 13,9 19,8 21,8 20,6 19,7 4 2 11 6 SW 1022,4 32 60 0,0
17.06.2019 07:00:00 16,6 14,2 17,2 18,0 20,7 19,7 5 3 10 6 WSW 1022,4 26 60 0,0
17.06.2019 06:00:00 14,9 13,0 12,8 15,7 21,0 19,7 2 1 10 5 W 1021,8 33 32 0,0
17.06.2019 05:00:00 15,1 12,6 12,9 15,6 21,5 19,7 8 4 14 8 SSW 1021,6 35 0 0,0
17.06.2019 04:00:00 15,0 12,3 12,0 16,1 21,9 19,7 6 4 10 6 WSW 1021,7 52 0 0,0
17.06.2019 03:00:00 15,4 13,7 12,7 16,5 22,5 19,7 5 3 8 4 S 1021,7 42 0 0,0
17.06.2019 02:00:00 15,3 13,7 12,0 17,2 23,0 19,7 2 1 5 3 S 1021,7 55 0 0,0
17.06.2019 01:00:00 15,5 12,8 12,6 18,2 23,6 19,7 3 1 4 2 SW 1021,5 51 0 0,0
17.06.2019 00:00:00 17,0 13,8 13,5 19,3 24,3 19,7 2 1 6 3 ESE 1021,3 63 0 0,0
16.06.2019 23:00:00 18,1 12,4 15,0 20,8 24,9 19,7 3 2 9 5 SW 1021,1 71 0 0,0
16.06.2019 22:00:00 18,7 12,6 16,5 22,7 25,4 19,7 5 3 8 4 E 1020,9 74 18 0,0
16.06.2019 21:00:00 20,5 12,8 18,9 25,3 25,6 19,7 0 0 8 4 N 1020,4 75 51 0,0
16.06.2019 20:00:00 21,3 11,9 23,2 27,6 25,6 19,7 2 1 8 5 S 1020,4 75 60 0,0
16.06.2019 19:00:00 20,5 11,9 23,2 27,7 25,4 19,7 6 3 11 6 S 1020,3 66 60 0,0
16.06.2019 18:00:00 20,2 12,0 23,4 27,2 25,2 19,7 5 3 10 5 S 1020,3 55 60 0,0
16.06.2019 17:00:00 19,3 12,1 21,2 26,5 25,3 19,7 5 3 10 5 SSE 1020,8 75 39 0,0
16.06.2019 16:00:00 18,0 12,7 17,1 24,7 25,7 19,7 4 2 16 8 NNW 1020,7 53 0 0,7
16.06.2019 15:00:00 20,2 10,4 21,3 28,6 25,8 19,7 5 3 18 10 W 1020,5 66 0 0,0
16.06.2019 14:00:00 20,5 9,1 22,2 31,6 25,3 19,7 11 6 24 13 NW 1020,0 57 17 0,0
16.06.2019 13:00:00 20,9 9,6 25,0 35,0 24,2 19,7 9 5 30 16 WNW 1019,6 62 56 0,0
16.06.2019 12:00:00 20,8 9,5 26,6 33,2 23,1 19,7 11 6 28 15 NW 1019,3 75 59 0,0
16.06.2019 11:00:00 19,5 12,3 24,1 30,9 22,2 19,7 11 6 23 12 WNW 1019,0 60 60 0,0
16.06.2019 10:00:00 17,8 11,9 20,7 25,9 21,6 19,7 10 5 23 12 WNW 1018,6 55 53 0,0
16.06.2019 09:00:00 16,7 11,4 19,2 23,8 21,3 19,7 13 7 25 14 NW 1018,4 57 59 0,0
16.06.2019 08:00:00 16,2 11,6 18,8 20,5 21,3 19,7 12 7 25 14 WNW 1018,1 62 50 0,0
16.06.2019 07:00:00 15,1 11,5 15,5 17,8 21,5 19,7 10 5 24 13 WNW 1017,8 65 2 0,0
16.06.2019 06:00:00 15,1 11,2 15,0 17,4 21,8 19,7 14 7 28 15 WNW 1016,8 75 0 0,0
16.06.2019 05:00:00 15,4 11,9 15,2 17,7 22,2 19,7 11 6 30 16 WNW 1016,0 64 0 0,0
16.06.2019 04:00:00 15,6 12,1 15,6 18,0 22,6 19,7 16 9 31 17 WNW 1015,9 58 0 0,0
16.06.2019 03:00:00 15,7 12,3 15,7 18,5 23,0 19,6 16 9 39 21 WNW 1015,7 73 0 0,0
16.06.2019 02:00:00 16,9 13,5 16,8 19,4 23,5 19,6 16 8 34 18 W 1015,2 52 0 0,0
16.06.2019 01:00:00 18,1 14,6 17,3 20,2 23,9 19,6 16 9 34 19 W 1014,4 50 0 0,0
16.06.2019 00:00:00 19,8 15,8 19,4 21,2 24,4 19,6 18 10 29 16 W 1013,7 47 0 0,0
15.06.2019 23:00:00 19,9 16,2 19,3 21,8 24,9 19,6 9 5 13 7 W 1013,2 47 0 0,0
15.06.2019 22:00:00 20,2 16,1 19,6 22,5 25,4 19,6 5 3 27 14 NW 1013,0 47 21 0,0
15.06.2019 21:00:00 21,2 16,0 20,5 24,2 25,8 19,6 15 8 48 26 W 1011,2 42 60 0,0
15.06.2019 20:00:00 22,3 17,1 22,6 26,1 26,1 19,6 25 13 42 23 W 1010,2 23 43 0,0
15.06.2019 19:00:00 23,4 19,3 24,7 27,3 26,5 19,6 15 8 23 13 WNW 1010,2 28 31 0,0
15.06.2019 18:00:00 21,3 17,7 21,7 26,9 26,9 19,6 11 6 26 14 NW 1010,6 40 0 0,0
15.06.2019 17:00:00 21,3 17,3 20,2 31,1 26,6 19,6 16 9 62 33 S 1010,6 35 22 0,3
15.06.2019 16:00:00 28,9 19,9 32,9 35,5 25,7 19,6 7 4 13 7 SSW 1007,7 27 49 0,0
15.06.2019 15:00:00 27,8 20,2 30,6 31,9 25,0 19,6 8 5 19 10 SSE 1008,4 35 4 0,0
15.06.2019 14:00:00 27,0 19,7 29,2 31,9 24,4 19,6 15 8 27 14 SSE 1008,4 29 12 0,0
15.06.2019 13:00:00 27,0 19,2 29,0 30,0 23,8 19,6 8 5 31 17 SE 1008,5 39 4 0,0
15.06.2019 12:00:00 25,5 18,6 27,4 29,3 23,2 19,6 11 6 32 18 ESE 1008,5 42 21 0,0
15.06.2019 11:00:00 23,9 17,4 25,1 27,9 22,7 19,6 21 12 43 23 ESE 1008,7 44 29 0,0
15.06.2019 10:00:00 22,2 17,5 22,7 23,5 22,5 19,6 9 5 38 21 E 1010,2 34 5 0,0
15.06.2019 09:00:00 22,4 16,9 23,1 23,3 22,3 19,6 19 10 38 21 E 1010,3 36 6 0,0
15.06.2019 08:00:00 22,6 16,7 23,4 22,6 22,3 19,5 17 9 32 18 E 1010,9 43 21 0,0
15.06.2019 07:00:00 21,5 15,8 21,3 20,6 22,4 19,5 16 8 35 19 E 1011,2 36 0 0,0
15.06.2019 06:00:00 22,0 15,4 21,3 20,3 22,6 19,5 10 5 24 13 E 1012,5 52 0 0,0
15.06.2019 05:00:00 21,7 15,1 20,8 20,1 22,9 19,5 10 5 26 14 E 1012,8 41 0 0,0
15.06.2019 04:00:00 23,0 14,6 22,0 20,5 23,2 19,5 14 7 28 15 ESE 1013,6 45 0 0,0
15.06.2019 03:00:00 23,6 13,7 22,6 20,8 23,6 19,5 17 9 31 17 SE 1014,5 57 0 0,0
15.06.2019 02:00:00 23,3 13,9 22,4 21,1 23,9 19,5 11 6 26 14 SE 1015,0 52 0 0,0
15.06.2019 01:00:00 22,9 14,4 22,0 21,6 24,3 19,5 11 6 21 12 ESE 1015,3 51 0 0,0
15.06.2019 00:00:00 22,9 15,3 21,8 22,0 24,8 19,5 9 5 18 10 SSE 1016,5 53 0 0,0
14.06.2019 23:00:00 22,6 15,2 21,6 22,5 25,4 19,5 7 4 22 12 E 1016,1 66 0 0,0
14.06.2019 22:00:00 23,7 13,5 22,5 23,5 25,9 19,5 11 6 26 14 ESE 1015,8 58 15 0,0
14.06.2019 21:00:00 25,0 12,8 24,0 25,3 26,4 19,5 10 5 22 12 ESE 1015,8 68 35 0,0
14.06.2019 20:00:00 26,1 10,9 25,0 26,9 26,8 19,5 11 6 26 14 ESE 1015,8 63 4 0,0
14.06.2019 19:00:00 27,4 8,9 27,9 29,5 26,9 19,5 15 8 30 16 SE 1015,9 69 57 0,0
14.06.2019 18:00:00 28,1 9,0 30,0 30,7 26,6 19,5 16 8 25 14 SE 1016,2 68 59 0,0
14.06.2019 17:00:00 28,0 10,9 30,3 31,4 26,1 19,5 13 7 25 13 SSE 1016,6 61 60 0,0
14.06.2019 16:00:00 27,7 10,2 30,6 32,0 25,4 19,5 14 8 26 14 SSE 1017,2 62 60 0,0
14.06.2019 15:00:00 26,8 11,7 30,1 31,9 24,7 19,5 12 7 26 14 SSE 1017,7 75 60 0,0
14.06.2019 14:00:00 26,0 11,3 29,7 31,6 23,9 19,6 14 7 25 14 SSE 1018,1 63 60 0,0
14.06.2019 13:00:00 24,9 12,5 29,0 30,9 23,0 19,6 13 7 22 12 SSE 1018,2 49 60 0,0
14.06.2019 12:00:00 23,8 13,1 27,3 30,1 22,1 19,6 11 6 20 11 SSE 1018,7 48 60 0,0
14.06.2019 11:00:00 22,7 14,2 25,0 28,3 21,2 19,6 11 6 21 12 S 1019,0 49 60 0,0
14.06.2019 10:00:00 21,0 15,0 23,5 26,0 20,5 19,6 11 6 18 10 SE 1019,0 58 60 0,0
14.06.2019 09:00:00 19,2 13,5 20,1 23,2 20,0 19,6 8 5 20 11 SE 1018,9 75 60 0,0
14.06.2019 08:00:00 17,2 13,2 17,7 20,1 19,8 19,5 9 5 16 9 SE 1018,7 50 60 0,0
14.06.2019 07:00:00 15,4 12,6 15,4 17,0 19,9 19,5 10 5 20 11 S 1018,4 75 60 0,0
14.06.2019 06:00:00 14,7 12,8 13,2 14,9 20,3 19,5 10 5 16 9 SSE 1018,0 64 48 0,0
14.06.2019 05:00:00 14,0 12,5 12,5 14,8 20,8 19,5 8 4 11 6 SSE 1017,3 72 0 0,0
14.06.2019 04:00:00 13,5 12,1 11,4 15,2 21,3 19,5 4 2 8 4 SE 1017,1 75 0 0,0
14.06.2019 03:00:00 13,9 12,5 12,2 16,0 21,8 19,5 5 3 11 6 SE 1017,1 58 0 0,0
14.06.2019 02:00:00 14,4 12,7 12,9 16,7 22,3 19,5 8 4 16 9 SE 1017,1 67 0 0,0
14.06.2019 01:00:00 14,6 13,3 14,0 17,1 23,0 19,5 8 4 30 16 ESE 1017,1 68 0 2,8
14.06.2019 00:00:00 15,1 14,3 14,5 17,3 24,1 19,5 26 14 49 26 S 1018,4 17 0 9,7
13.06.2019 23:00:00 19,9 11,0 19,4 20,8 24,8 19,5 16 9 31 17 WSW 1016,2 75 0 0,0
13.06.2019 22:00:00 20,5 13,4 19,4 22,0 25,4 19,6 11 6 21 11 ESE 1014,0 75 0 0,0
13.06.2019 21:00:00 22,2 11,7 20,9 24,2 25,9 19,6 7 4 20 11 ESE 1013,7 73 22 0,0
13.06.2019 20:00:00 23,2 13,0 23,0 26,8 26,2 19,6 7 4 16 9 SSE 1013,3 74 52 0,0
13.06.2019 19:00:00 23,3 11,9 24,4 28,0 26,2 19,6 9 5 21 12 SSE 1013,7 51 41 0,0
13.06.2019 18:00:00 24,2 12,4 26,5 29,4 26,0 19,6 11 6 22 12 S 1013,7 70 52 0,0
13.06.2019 17:00:00 24,6 12,7 28,2 30,1 25,5 19,6 10 5 19 11 SSE 1013,7 68 58 0,0

tt = Température de l'air
td = dewpoint
tt 5cm = Température de l'air 5cm
tt -5cm = Température de l'air -5cm
tt -20cm = Température de l'air -20cm
tt -100cm = Température de l'air -100cm
ff = Vitesse du vent
fx = gusts
dd = Direction du vent
ppp = reduced air pressure
vv = visibility
sd = Ensoleillement
rr = Quantités de précipitations

stations d'obs. à proximité